Погода в Павло-Куракине

Россия / Пензенская область     53°12′37″N   45°47′39″E
темп.,
°C
ветер,
м/с
пор.,
м/с
влажн.,
%
обл.,
%
осадки,
мм/ч
давл.,
гПа
погр.,
м
19 апреля, пн
пн1900:00+7св41071100 0.3 1019218
03:00+6всв51178100 0.3 1020366
06:00+5всв61378100 0.0 1020433
09:00+8в71164100 0.0 1020674
12:00+10в7951100 0.0 10201272
15:00+10в795185 0.0 10201398
18:00+9в6106198 0.0 1020941
21:00+6в71366100 0.0 1021939
20 апреля, вт
вт2000:00+5в71470100 0.0 1022858
03:00+3в71482100 0.0 1022676
06:00+3вюв71575100 0.0 1023765
09:00+3вюв81676100 0.0 1023760
12:00+4вюв81664100 0.0 1023880
15:00+5вюв81668100 0.1 1022884
18:00+7вюв91661100 0.1 10201126
21:00+5вюв101969100 0.4 1018921
21 апреля, ср
ср2100:00+5вюв112169100 0.3 1016903
03:00+3юв112384100 0.6 1015841
06:00+3юв102190100 0.5 1014843
09:00+4юв101990100 0.6 1015834
12:00+6ююв91685100 0.0 1015820
15:00+6ююв81688100 0.0 1016752
18:00+5ююв61294100 0.1 1018530
21:00+4юв51296100 0.1 1019405
22 апреля, чт
чт2200:00+4юв51197100 0.4 1019398
03:00+5ю4997100 0.4 1020461
06:00+5ю51093100 0.0 1021525
09:00+7ю5889100 0.0 1022624
12:00+9ююз5779100 0.0 1022816
15:00+11ю467293 0.1 1022904
18:00+10ююв468025 1.3 1022249
21:00+6ююв239447 1.8 102450
23 апреля, пт
пт2300:00+5ююв369628 0.1 1024111
03:00+5ююв249529 0.1 102487
06:00+5ююв359519 0.0 1025128
09:00+11ю23705 0.0 1024476
12:00+15ю214895 0.2 10241930
15:00+13ю1261100 0.3 102343
18:00+12юв1163100 0.0 102310
21:00+10юв2574100 0.0 1022113